Orbital Elements at Epoch 2459200.5 (2020-Dec-17.0) TDB
Reference: JPL 12 (heliocentric ecliptic J2000)
Element | Value | Uncertainty (1-sigma) | Units |
e | .03232912659276953 | 6.4048e-08 | |
a | 3.053037872605807 | 6.1965e-08 | au |
q | 2.954335824729814 | 1.9496e-07 | au |
i | 7.37569406840367 | 7.3629e-06 | deg |
node | 334.5204358535778 | 5.3653e-05 | deg |
peri | 82.27720150507058 | 0.00013165 | deg |
M | 254.4744994183204 | 0.00012356 | deg |
tp | 2459771.651911571794 (2022-Jul-11.15191157) | 0.00067571 | TDB |
period | 1948.48341900728 5.33 | 5.932e-05 1.624e-07 | d yr |
n | .184759078003042 | 5.6249e-09 | deg/d |
Q | 3.151739920481799 | 6.3968e-08 | au |
|
| | Orbit Determination Parameters
Additional Information
|